Terug naar catalogus

STARLINK-35896

ActiefCommunicatieVLEO
NORAD 66824·PAYLOAD·🇺🇸 United States

Gelanceerd Dec 2, 2025 vanaf Vandenberg Space Force Base

Loading…

Volgende Passages (komende 24 uur)

TLE

VersSource: CelesTrak SupGP

Epoch: Sep 15, 2026, 04:01 UTC

1 66824C 25280D   26258.16784722 -.00052074  00000+0 -43631-2 0  2589
2 66824  70.0010 216.8034 0003372 269.3949 164.3738 14.98364393    10

Volg STARLINK-35896 in realtime met AllMySat

Download on the App Store